Talkeetna, AK

5:42 AM AKDT on May 30, 2017 (GMT -0800)
Talkeetna

Weather History for PATK - November, 2012

Change the Weather History Date:

Sunday, November 4, 2012

  Actual Average Record
Temperature  
Mean Temperature 22 °F -  
Max Temperature 33 °F 29 °F 48 °F (2002)
Min Temperature 12 °F 14 °F -27 °F (1971)
Degree Days  
Heating Degree Days 42    
Moisture  
Dew Point 10 °F    
Average Humidity 61    
Maximum Humidity 81    
Minimum Humidity 27    
Precipitation  
Precipitation 0.00 in - - ()
Sea Level Pressure  
Sea Level Pressure 29.38 in    
Wind  
Wind Speed 3 mph (North)    
Max Wind Speed 7 mph    
Max Gust Speed -    
Visibility 10 miles    
Events      
Averages and records for this station are not official NWS values.
T = Trace of Precipitation, MM = Missing Value Source: NWS Daily Summary

Daily Weather History Graph

Daily Weather History Graph

Search for Another Location

Airport or City:

Trip Planner

Search our weather history database for the weather conditions in past years. The results will help you decide how hot, cold, wet, or windy it might be!

Date:

Astronomy

Nov. 04, 2012 Rise Set
Actual Time 8:44 AM AKST 4:42 PM AKST
Civil Twilight 7:53 AM AKST 5:33 PM AKST
Nautical Twilight 6:59 AM AKST 6:27 PM AKST
Astronomical Twilight 6:07 AM AKST 7:18 PM AKST
Moon 9:15 PM AKST (11/4) 1:54 PM AKST (11/4)
Length of Visible Light 9h 39m
Length of Day
7h 58m
Waning Gibbous, 70% of the Moon is Illuminated
Nov 4
Waning Gibbous
Nov 6
Last Quarter
Nov 13
New
Nov 20
First Quarter
Nov 28
Full

Hourly Weather History & Observations

Time (AKST) Temp. Windchill Dew Point Humidity Pressure Visibility Wind Dir Wind Speed Gust Speed Precip Events Conditions
12:53 AM 18.0 °F 12.7 °F 10.0 °F 71% 29.41 in 10.0 mi Variable 3.5 mph - N/A   Clear
1:53 AM 19.0 °F - 10.0 °F 68% 29.41 in 10.0 mi Calm Calm - N/A   Clear
1:53 AM 15.1 °F - 9.0 °F 77% 29.42 in 10.0 mi Calm Calm - N/A   Clear
3:53 AM 14.0 °F 8.2 °F 9.0 °F 80% 29.42 in 10.0 mi Variable 3.5 mph - N/A   Clear
4:53 AM 18.0 °F 9.8 °F 9.0 °F 68% 29.40 in 10.0 mi North 5.8 mph - N/A   Clear
5:53 AM 18.0 °F 12.7 °F 9.0 °F 68% 29.40 in 10.0 mi North 3.5 mph - N/A   Clear
6:53 AM 17.1 °F 11.7 °F 9.0 °F 71% 29.40 in 10.0 mi Variable 3.5 mph - N/A   Clear
7:53 AM 18.0 °F 11.1 °F 9.0 °F 68% 29.39 in 10.0 mi NNW 4.6 mph - N/A   Clear
8:53 AM 18.0 °F 9.8 °F 9.0 °F 68% 29.39 in 10.0 mi North 5.8 mph - N/A   Clear
9:53 AM 19.9 °F 11.1 °F 9.0 °F 62% 29.38 in 10.0 mi NNW 6.9 mph - N/A   Clear
10:53 AM 23.0 °F 17.0 °F 10.0 °F 58% 29.38 in 10.0 mi North 4.6 mph - N/A   Clear
11:53 AM 27.0 °F 23.0 °F 10.9 °F 51% 29.37 in 10.0 mi Variable 3.5 mph - N/A   Clear
12:53 PM 30.0 °F 25.2 °F 12.0 °F 47% 29.35 in 10.0 mi NNW 4.6 mph - N/A   Clear
1:53 PM 32.0 °F 28.7 °F 14.0 °F 48% 29.34 in 10.0 mi Variable 3.5 mph - N/A   Clear
2:53 PM 32.0 °F 25.6 °F 10.9 °F 42% 29.33 in 10.0 mi NW 6.9 mph - N/A   Clear
3:53 PM 30.9 °F 26.2 °F 10.9 °F 43% 29.33 in 10.0 mi Variable 4.6 mph - N/A   Clear
4:53 PM 28.0 °F 24.2 °F 9.0 °F 45% 29.34 in 10.0 mi Variable 3.5 mph - N/A   Clear
5:53 PM 26.1 °F - 8.1 °F 47% 29.34 in 10.0 mi Calm Calm - N/A   Clear
6:53 PM 19.9 °F - 9.0 °F 62% 29.37 in 10.0 mi Calm Calm - N/A   Clear
7:53 PM 19.9 °F 14.9 °F 10.9 °F 68% 29.39 in 10.0 mi NNE 3.5 mph - N/A   Clear
8:53 PM 15.1 °F - 9.0 °F 77% 29.40 in 10.0 mi Calm Calm - N/A   Clear
9:53 PM 12.9 °F 6.9 °F 8.1 °F 81% 29.42 in 10.0 mi ENE 3.5 mph - N/A   Clear
10:53 PM 15.1 °F 7.7 °F 9.0 °F 77% 29.44 in 10.0 mi North 4.6 mph - N/A   Clear